Flag for Syria Weather past 2 weeks in Aleppo, Syria

Now
85 °F

Scattered clouds.


Feels Like: 91 °F
Forecast: 72 / 99 °F
Wind: 12 mph from West

Location: Iskenderun

Current Time: Jul 22, 2014 at 6:26:30 PM

Latest Report: Jul 22, 2014 at 5:00 PM


Visibility: 9 mi

Pressure: 29.73 "Hg

Humidity: 68%

Dew point: 73 °F

Location of AleppoLocation

Historic Weather in Aleppo — Graph

°F

Aleppo temperature yesterday

Maximum temperature yesterday: 85 °F (at 3:00 PM)
Minimum temperature yesterday: 77 °F (at 3:00 AM)
Average temperature yesterday: 82 °F

Past Weeks' High & Low Weather Summary

 TemperatureHumidityPressure
High88 °F (Jul 10, 3:00 PM)77% (Jul 21, 6:00 AM)29.84 "Hg (Jul 21, 6:00 AM)
Low77 °F (Jul 21, 3:00 AM)56% (Jul 17, 3:00 PM)29.62 "Hg (Jul 20, 6:00 AM)
Average83 °F67%29.73 "Hg
* Reported Jul 7 6:00 PM — Jul 22 5:00 PM, Aleppo, Weather by CustomWeather, © 2014

Note: Actual official high and low records may vary slightly from our data, if they occured in-between our weather recording intervals... More about our weather records

Advertising

Aleppo weather history for previous 24 hours

 ConditionsComfort  
Time TempWeatherWind HumidityBarometerVisibility
5:00 PM
Jul 22
85 °FScattered clouds.12 mph68%29.73 "Hg9 mi
4:00 PM86 °FScattered clouds.10 mph67%29.73 "Hg9 mi
3:00 PM85 °FScattered clouds.12 mph67%29.74 "Hg9 mi
2:00 PM86 °FScattered clouds.9 mph64%29.75 "Hg9 mi
1:00 PM85 °FScattered clouds.8 mph64%29.75 "Hg9 mi
12:00 PM86 °FScattered clouds.5 mph61%29.75 "Hg9 mi
11:00 AM85 °FScattered clouds.No wind63%29.75 "Hg9 mi
10:00 AM84 °FScattered clouds.No wind64%29.75 "Hg9 mi
9:00 AM83 °FScattered clouds.No wind66%29.75 "Hg9 mi
6:00 AM80 °FPartly sunny.No wind69%29.72 "Hg9 mi
3:00 AM80 °FPassing clouds.2 mph68%29.72 "Hg9 mi
12:00 AM80 °FPassing clouds.2 mph61%29.73 "Hg9 mi
9:00 PM
Jul 21
80 °FPassing clouds.2 mph57%29.71 "Hg9 mi
8:00 PM80 °FPassing clouds.5 mph60%29.72 "Hg9 mi
7:00 PM79 °FSprinkles. Partly sunny.6 mph60%29.70 "Hg6 mi
6:00 PM84 °FScattered clouds.14 mph71%29.68 "Hg9 mi
Weather by CustomWeather, © 2014

See weather overviewHow to use our weather pages